Other Public Products
Issued by NWS Grand Forks, ND

Home | Current Version | Previous Version | Text Only | Print | Product List | Glossary Off
Versions: 1 2 3 4 5 6 7 8 9 10 11 12 13 14 15 16 17 18 19 20 21 22 23 24 25 26 27 28 29 30 31 32 33 34 35 36 37 38 39 40 41 42 43 44 45 46 47 48 49 50

000
FPUS83 KFGF 190510
OPUFGF
PRAIRIE TO PINES WEATHER ROUNDUP
NATIONAL WEATHER SERVICE EASTERN NORTH DAKOTA/GRAND FORKS ND
1200 AM CDT SUN APR 19 2015

 **SATELLITE DATA USED TO AUGMENT SKY COVER AT AUTOMATED STATIONS**
 *****  WEATHER ACROSS EASTERN NORTH DAKOTA  *****

CITY           SKY/WX    TMP DP  RH WIND       PRES   REMARKS
GRAND FORKS    CLOUDY    57  31  37 SE6       29.80F
GRAND FORKS AF NOT AVBL
GRAND CITY NWS   N/A     57 N/A N/A SW1         N/A
BUXTON         NOT AVBL
DEVILS LAKE    CLOUDY    54  37  54 W20G26    29.82F
FARGO          CLOUDY    61  40  45 S18       29.81S
WAHPETON ARPT  CLOUDY    52  46  82 SE9       29.84S
$$

 *****  WEATHER ACROSS CENTRAL AND WESTERN NORTH DAKOTA  *****

CITY           SKY/WX    TMP DP  RH WIND       PRES   REMARKS
JAMESTOWN      CLOUDY    51  44  77 NW23G30   29.80F
BISMARCK       LGT RAIN  48  45  89 NW20G33   29.91S
MINOT          CLOUDY    46  37  71 NW18      29.92F
MINOT AFB      CLOUDY    46  43  86 NW18G29   29.92S
GARRISON         N/A     47  42  83 N13       29.94S
WILLISTON      MOCLDY    43  28  55 NW13      30.03S
DICKINSON      CLOUDY    46  34  62 NW16      29.98R
HETTINGER      CLOUDY    45  41  86 NW12      29.99S
$$

 *****  OTHER OBSERVATIONS NORTHEAST NORTH DAKOTA  *****

CITY           SKY/WX    TMP DP  RH WIND       PRES   REMARKS
WALHALLA       MOCLDY    57  32  38 SW8       29.80F
LANGDON        FAIR      50  30  46 W8        29.81F
CAVALIER       FAIR      54  32  43 SE6       29.81S
GRAFTON        FAIR      55  28  35 MISG      29.81F
CANDO          CLOUDY    50  37  62 NW14G20   29.83S
FORT TOTTEN    NOT AVBL
ROLLA          CLOUDY    48  39  71 NW14      29.86F
RUGBY            N/A    N/A N/A N/A NW15      29.87
 ***** THE ABOVE OBSERVATIONS ARE NON NWS ARE NOT QUALITY
        CONTROLLED AND MAY MIS-REPORT RAIN FOR SNOW...
$$

 *****  OTHER OBSERVATIONS SOUTHEAST NORTH DAKOTA *****

CITY           SKY/WX    TMP DP  RH WIND       PRES   REMARKS
COOPERSTOWN    NOT AVBL
VALLEY CITY    CLOUDY    59  32  36 SE8       29.79F
OAKES            N/A     52  50  93 S13       29.82R
GWINNER          N/A     55  54  94 S10       29.83S
SHEYENNE NWR     N/A     56  51  82 S13       29.95S
BUFFALO        NOT AVBL
WYNDMERE         N/A     54  52  94 S6          N/A
 ***** THE ABOVE OBSERVATIONS ARE NON NWS ARE NOT QUALITY
       CONTROLLED AND MAY MIS-REPORT RAIN FOR SNOW...
$$

  *****  WEATHER ACROSS NORTHERN MINNESOTA  *****

CITY           SKY/WX    TMP DP  RH WIND       PRES   REMARKS
FLAG ISLAND    CLOUDY    48  25  40 SE7       29.86F
WARROAD        CLOUDY    52  30  43 SE9       29.86F
ROSEAU         CLOUDY    55  28  35 SE10      29.84F
HALLOCK        CLOUDY    55  28  35 SE10      29.80F
THF RVR FALLS  CLOUDY    55  30  38 SE8       29.84F
HALSTAD        NOT AVBL
FOSSTON        CLOUDY    54  32  43 SE9G20    29.84F
BAUDETTE       CLOUDY    50  25  37 SE10      29.88F
WASKISH        CLOUDY    50  34  53 SE8       29.89F
CROOKSTON      CLOUDY    57  32  38 SE8       29.82F
$$
  *****  WEATHER ACROSS CENTRAL AND WEST MINNESOTA  *****

CITY           SKY/WX    TMP DP  RH WIND       PRES   REMARKS
BEMIDJI        CLOUDY    50  32  50 SE12      29.88F
PARK RAPIDS    CLOUDY    50  32  50 SE9G17    29.88F
WADENA         MIX PCPN  45  43  93 E7        29.87F
DETROIT LAKES  CLOUDY    55  34  44 SE14G22   29.85F
MOORHEAD       CLOUDY    59  39  47 S10       29.82S
FERGUS FALLS   LGT RAIN  52  46  82 SE9       29.86F
ELBOW LAKE     RAIN      51  47  89 E8        29.83F
MORRIS MN      LGT RAIN  52  48  87 E14       29.79F
STAPLES        RAIN      43  41  93 E7        29.88F
WHEATON        LGT RAIN  50  46  87 E10G16    29.83F
$$
  *****  WEATHER ELSEWHERE ACROSS MINNESOTA  *****

CITY           SKY/WX    TMP DP  RH WIND       PRES   REMARKS
DULUTH         CLOUDY    40  27  59 E14       29.97F
INTRNTL FALLS  CLOUDY    47  24  40 SE14      29.93F
ELY            CLOUDY    43  16  33 E6        29.97F
CLOQUET        CLOUDY    39  28  65 E10       29.96F
BRAINERD         N/A    N/A N/A N/A MISG      29.91F
HIBBING        CLOUDY    42  21  43 E5        29.94F
ALEXANDRIA     LGT RAIN  49  45  86 E15       29.83F
SAINT CLOUD    LGT RAIN  50  44  80 E10       29.85F
MINNEAPOLIS    LGT RAIN  54  47  77 E20       29.88F
$$

  *****  WEATHER ACROSS SOUTH DAKOTA  *****

CITY           SKY/WX    TMP DP  RH WIND       PRES   REMARKS
SIOUX FALLS    CLOUDY    57  55  93 S8        29.78F
BROOKINGS      CLOUDY    55  54  94 S9        29.78F
WATERTOWN      LGT RAIN  53  51  93 E7        29.77F FOG
HURON          CLOUDY    55  54  96 W5        29.77F FOG
SISSETON         N/A     52  51  97 E8        29.79F
ABERDEEN       LGT RAIN  52  50  93 N7        29.79F
MITCHELL       CLOUDY    57  56  96 W5        29.79F FOG
PIERRE         LGT RAIN  46  45  96 NW18      29.84S FOG
MOBRIDGE       RAIN      49  46  90 NW10      29.86R
RAPID CITY     LGT RAIN  45  42  89 N28G38    29.97R
$$

  *****  SOME WEATHER IN NEARBY STATES *****

CITY           SKY/WX    TMP DP  RH WIND       PRES   REMARKS
GLASGOW MT     CLEAR     39  20  46 NW13      30.13S
GREAT FALLS MT CLOUDY    39  29  67 N6        30.27S
CHEYENNE WY    CLOUDY    38  33  82 N23G33    29.98S
SCOTTSBLUFF NE CLOUDY    44  32  62 NW10      29.97R
OMAHA NE       MOCLDY    56  55  97 CALM      29.81F
DES MOINES IA  CLOUDY    60  57  89 SE9       29.83R
DAVENPORT IA   MOCLDY    57  39  51 E15       29.90F
CHICAGO IL     CLOUDY    50  35  56 E5        29.97F
EAU CLAIRE WI  LGT RAIN  53  23  31 E9        29.96R
LA CROSSE WI   CLOUDY    59  26  28 S5        29.93S
$$

  *****  SOME NATIONAL WEATHER *****

CITY           SKY/WX    TMP DP  RH WIND       PRES   REMARKS
LA GUARDIA NY  PTCLDY    62  29  28 N9        30.07R
RALEIGH NC     CLOUDY    68  63  84 SE9       30.02S
ATLANTA GA     CLOUDY    67  65  93 SE5       29.94F
NEW ORLEANS LA MOCLDY    71  67  87 S8        29.80S
OKLAHOMA CITY  CLOUDY    63  50  62 NE9       29.77R
ALBUQUERQUE NM PTCLDY    52  24  33 N5        29.97S
SALT LAKE CITY CLEAR     56  37  49 S3        30.00R
LOS ANGELES CA CLEAR     59  53  80 SW9       29.97R
BOISE ID       CLEAR     58  23  26 W10       30.06R
SEATTLE WA     PTCLDY    56  42  59 N12       30.25R
$$

*** WEATHER ACROSS MANITOBA...SASKATCHEWAN AND ONTARIO ***
                ***ONTARIO***

CITY           SKY/WX    TMP DP  RH WIND       PRES   REMARKS
GERALDTON      PTCLDY    32  23  69 E6        30.19S
THUNDER BAY    PTCLDY    34  28  80 VRB2      30.12F
SIOUX LOOKOUT  MOCLDY    43  19  39 SE9G18    30.00F
TORONTO        CLEAR     45  28  53 N9        30.20S
BIG TROUT LK   CLOUDY    39  21  48 E8        30.11F
PICKLE LAKE    NOT AVBL
DRYDEN         CLOUDY    45  18  33 SE17G23   29.95F
KENORA         NOT AVBL
$$
                *** MANITOBA***

CITY           SKY/WX    TMP DP  RH WIND       PRES   REMARKS
BRANDON        SHOWER    46  43  87 W8        29.86S
DAUPHIN        CLEAR     46  37  71 W16       29.82R
ISLAND LAKE    CLOUDY    43  27  52 E8        29.88F
PILOT MOUND      N/A     50  37  62 NW9         N/A
THE PAS        CLOUDY    37  36  93 N10       29.91R
THOMPSON       CLOUDY    36  34  93 NE13      29.95S
WINNIPEG       MOCLDY    54  27  35 W20       29.80S
LYNN LAKE      FLURRIES  30  28  93 NE17G24   30.07R WCI  18
CHURCHILL      CLOUDY    19  18  93 NE10      30.32R WCI   8
GILLAM         CLOUDY    28  27  93 E10G17    30.09S WCI  19
$$
                ***SASKATCHEWAN***

CITY           SKY/WX    TMP DP  RH WIND       PRES   REMARKS
ESTEVAN        MOCLDY    37  30  75 W8        29.98F
KINDERSLEY     PTCLDY    34  27  75 NW7       30.17S
LLOYDMINSTER   MOCLDY    37  32  81 NW12      30.20F
PRINCE ALBERT  CLOUDY    39  36  87 N17       30.03S
REGINA         MOCLDY    43  32  65 W13       30.00S


USA.gov is the U.S. government's official web portal to all federal, state and local government web resources and services.